Location: *
(46.4000°N, 12.6667°E)
Time: 18:26:41
(UTC+00:00)

Cosmos 220 Rocket - Pass Details

Date: 09 April 2020
Orbit: 574 x 618 km, 74.0° (Epoch: 03 June)

Event Time Altitude Azimuth Distance (km) Brightness Sun altitude
Rises 19:13:54 0° 342° (NNW) 2,840 8.2 -14.4°
Reaches altitude 10° 19:16:12 10° 349° (NNW) 1,942 7.2 -14.8°
Maximum altitude 19:20:24 47° 64° (ENE) 798 4.4 -15.4°
Enters shadow 19:22:17 29° 121° (ESE) 1,128 4.8 -15.7°
